FW5356 Weather Reports


time (UTC)temp
F
wind
direction
speed
knots
gust
knots
rain 1hr
in
rain 24hr
in
rain mn
in
humidity
%
barometer
mb
20260504211539 69 257 2.6 12.2 0.00 0.00 0.00 38 1010.6
20260504210038 69 296 5.2 17.4 0.00 0.00 0.00 37 1010.6
20260504204540 68 334 3.5 13.0 0.00 0.00 0.00 38 1010.5
20260504203039 69 360 7.0 15.6 0.00 0.00 0.00 35 1010.5
20260504201536 69 205 6.1 18.2 0.00 0.00 0.00 35 1010.6
20260504200035 70 312 6.1 12.2 0.00 0.00 0.00 35 1010.6
20260504194533 68 309 4.3 16.5 0.00 0.00 0.00 38 1010.7
20260504193030 68 312 5.2 12.2 0.00 0.00 0.00 37 1010.6
20260504191528 66 289 8.7 18.2 0.00 0.00 0.00 38 1010.7
20260504190027 68 269 6.1 16.5 0.00 0.00 0.00 36 1010.7
20260504184525 67 176 7.0 13.0 0.00 0.00 0.00 39 1011.0
20260504183024 66 309 6.1 13.9 0.00 0.00 0.00 37 1011.1
20260504181523 67 229 7.0 20.0 0.00 0.00 0.00 36 1011.1
20260504180023 66 236 10.4 20.0 0.00 0.00 0.00 37 1011.3
20260504174520 66 302 7.8 21.7 0.00 0.00 0.00 39 1011.2
20260504173021 66 269 7.0 18.2 0.00 0.00 0.00 38 1011.4
20260504171524 66 313 10.4 21.7 0.00 0.00 0.00 36 1011.3
20260504090123 43 279 2.6 8.7 0.00 0.00 0.00 67 1014.3
20260504081557 43 274 2.6 7.8 0.00 0.00 0.00 66 1014.3
20260504044530 36 257 0.9 3.5 0.00 0.00 0.00 71 1014.5
20260504043042 36 260 0.9 3.5 0.00 0.00 0.00 74 1014.5
20260504041525 36 230 0.9 2.6 0.00 0.00 0.00 71 1014.4
20260504040025 37 249 0.0 2.6 0.00 0.00 0.00 69 1014.3
20260504034520 37 249 0.9 2.6 0.00 0.00 0.00 69 1014.3
20260504033020 37 252 0.0 2.6 0.00 0.00 0.00 70 1014.3
20260504031520 37 252 0.0 1.7 0.00 0.00 0.00 71 1014.2
20260504030018 38 252 0.9 2.6 0.00 0.00 0.00 71 1014.2
20260504024518 38 252 0.9 3.5 0.00 0.01 0.00 69 1014.2
20260504023021 38 273 0.0 2.6 0.00 0.01 0.00 70 1014.3
20260504021517 38 344 0.0 1.7 0.00 0.01 0.00 71 1014.3
20260504020016 39 344 0.0 0.9 0.00 0.01 0.00 67 1014.2
20260504014516 40 344 0.0 1.7 0.00 0.01 0.00 64 1014.1
20260504013019 41 350 0.0 2.6 0.00 0.01 0.00 63 1014.0
20260504011521 42 295 0.0 1.7 0.00 0.01 0.00 61 1013.8
20260504010014 42 288 0.0 2.6 0.00 0.01 0.00 61 1013.6
20260504004514 42 303 0.0 2.6 0.00 0.01 0.00 60 1013.4
20260504003013 43 325 0.0 0.9 0.00 0.01 0.00 59 1013.3
20260504001513 44 325 0.0 3.5 0.00 0.01 0.00 57 1013.2
20260504000012 44 360 0.9 4.3 0.00 0.01 0.00 56 1012.9
20260503234512 45 283 1.7 4.3 0.00 0.02 0.00 56 1012.9
20260503233010 46 311 0.9 7.0 0.00 0.02 0.00 54 1012.7
20260503231516 47 298 0.9 10.4 0.00 0.02 0.00 52 1012.7
20260503230010 48 335 2.6 7.8 0.00 0.02 0.00 51 1012.4
20260503224515 48 314 4.3 11.3 0.00 0.04 0.00 49 1012.3
20260503223009 48 23 7.0 15.6 0.00 0.04 0.00 48 1012.0
20260503221510 48 360 0.9 10.4 0.00 0.04 0.00 50 1012.0
20260503220008 48 350 7.8 22.6 0.00 0.04 0.00 48 1012.0
20260503214509 48 299 6.1 14.8 0.00 0.07 0.00 48 1011.8
20260503213007 48 315 4.3 16.5 0.00 0.07 0.00 47 1011.6